This is the latest recevied weather packets stored in our database for station/object LA3SP-1. If no packets are shown the sender has not sent any weather packets the latest 10 day(s).
| Time | Temp. | Humidity | Pressure | Rain* | Wind** | Luminosity | Snow |
|---|---|---|---|---|---|---|---|
| 1778049831 | -2.78° C | 66% | 1006.5 hPa | 0 mm | - | - | - |
| 1778049229 | -2.78° C | 67% | 1006.6 hPa | 0 mm | - | - | - |
| 1778048628 | -2.78° C | 67% | 1006.5 hPa | 0 mm | - | - | - |
| 1778048026 | -2.78° C | 67% | 1006.6 hPa | 0 mm | - | - | - |
| 1778047425 | -3.33° C | 68% | 1006.6 hPa | 0 mm | - | - | - |
| 1778046222 | -4.44° C | 70% | 1006.8 hPa | 0 mm | - | - | - |
| 1778045681 | -5° C | 70% | 1006.9 hPa | 0 mm | - | - | - |
| 1778045621 | -5° C | 70% | 1006.9 hPa | 0 mm | - | - | - |
| 1778045019 | -5° C | 71% | 1006.8 hPa | 0 mm | - | - | - |
| 1778044419 | -5.56° C | 72% | 1007 hPa | 0 mm | - | - | - |
| 1778043816 | -6.11° C | 73% | 1006.8 hPa | 0 mm | - | - | - |
| 1778043365 | -6.67° C | 73% | 1006.8 hPa | 0 mm | - | - | - |
| 1778043215 | -6.67° C | 73% | 1006.8 hPa | 0 mm | - | - | - |
| 1778040810 | -6.11° C | 72% | 1007 hPa | 0 mm | - | - | - |
| 1778039607 | -6.11° C | 72% | 1006.8 hPa | 0 mm | - | - | - |
| 1778038404 | -6.11° C | 72% | 1006.8 hPa | 0 mm | - | - | - |
| 1778037803 | -6.11° C | 73% | 1006.6 hPa | 0 mm | - | - | - |
| 1778036600 | -6.11° C | 72% | 1006.5 hPa | 0 mm | - | - | - |
| 1778035398 | -6.11° C | 73% | 1006.7 hPa | 0 mm | - | - | - |
| 1778034796 | -6.11° C | 73% | 1006.7 hPa | 0 mm | - | - | - |
| 1778034195 | -6.11° C | 73% | 1006.8 hPa | 0 mm | - | - | - |
| 1778033594 | -6.11° C | 72% | 1006.7 hPa | 0 mm | - | - | - |
| 1778030586 | -5.56° C | 72% | 1006.5 hPa | 0 mm | - | - | - |
| 1778029985 | -5.56° C | 71% | 1006.3 hPa | 0 mm | - | - | - |
| 1778029383 | -5.56° C | 71% | 1006.4 hPa | 0 mm | - | - | - |
* Rain latest 24 hours (hover to see other rain measurements)
** Current wind speed in m/s (hover to see current wind gust speed)